Finales Départementales des Jeunes

Compétition Départementale

LENS

Le Dimanche 02 Juin 2013

Bassin de 50m

50 Nage Libre Messieurs

Séries

Nom Année Temps Pts Club Pays
1 MILLE Thomas 2001 0:29:21 852 CALAIS NATATION FRA
2 DEWILDE Colin 2000 0:30:03 802 SN LENS FRA
3 PLAHIERS Nicolas 2000 0:30:06 801 SN LENS FRA
4 LENOIR Antoine 2000 0:30:24 790 USO BRUAY-LA-BUISSIERE FRA
5 DELPLANQUE David 2000 0:30:52 773 RACING CLUB ARRAS FRA
6 TROLLÉ Pierre 2000 0:30:62 768 US MONTREUIL-SUR-MER FRA
7 DESFONTAINES Bastien 2001 0:31:09 741 STADE BÉTHUNE PÉLICAN CLUB FRA
8 CORNU Louis 2000 0:31:14 738 BERCK NATATION FRA
9 DEFERNEZ Maxance 2000 0:31:15 737 CN COURRIÈRES FRA
10 WINOCK Hugo 2000 0:31:54 715 DAUPHINS ST-OMER FRA
11 BUQUET Mathis 2000 0:31:64 709 SN LENS FRA
12 JAYET Zakari 2000 0:31:87 697 STADE BÉTHUNE PÉLICAN CLUB FRA
13 MATUSZAK Leo 2001 0:32:04 687 STADE BÉTHUNE PÉLICAN CLUB FRA
14 DESCAMPS Quentin 2000 0:32:50 662 HIPPO. MONTIGNY-EN-GOHELLE FRA
15 MATEO Antonin 2000 0:32:52 661 STADE BÉTHUNE PÉLICAN CLUB FRA
16 BERNARD Erwin 2000 0:32:58 658 SN LENS FRA
17 MODESTE Jean-Guillaume 2000 0:32:70 651 SC BOULOGNE-SUR-MER FRA
18 FIEF Tristan 2001 0:32:82 645 RACING CLUB ARRAS FRA
19 POURCHEZ Aurelien 2001 0:32:94 639 ASL CANETONS LILLERS FRA
20 MAGNIER Arthur 2001 0:32:98 636 DAUPHINS ST-OMER FRA
21 GONTIER Thomas 2002 0:33:06 632 CALAIS NATATION FRA
22 THUILLIER Hugo 2000 0:33:48 610 ASL CANETONS LILLERS FRA
23 DELHOMEL Paul 2001 0:33:53 608 RACING CLUB ARRAS FRA
24 LECORNE Theo 2000 0:33:60 604 SN LENS FRA
25 PERROCHEAU Dylan 2000 0:33:61 604 USO BRUAY-LA-BUISSIERE FRA
26 BUCAMP Edouard 2000 0:33:68 600 CN COURRIÈRES FRA
27 VASSEUR Anthony 2001 0:33:70 599 DAUPHINS ST-OMER FRA
28 DELIE Martin 2001 0:33:78 595 SC BOULOGNE-SUR-MER FRA
29 LOOTEN Cyprien 2001 0:33:79 594 DAUPHINS ST-OMER FRA
30 BRICE Théo 2001 0:33:91 588 STADE BÉTHUNE PÉLICAN CLUB FRA
31 WALLART Jules 2002 0:33:94 587 SN LENS FRA
32 BONHOMME Célien 2002 0:34:00 584 RACING CLUB ARRAS FRA
33 VANHOYE Hugo 2000 0:34:00 584 RACING CLUB ARRAS FRA
34 MARLARD Axel 2000 0:34:07 580 SC BOULOGNE-SUR-MER FRA
35 FLEJSZAR Clement 2001 0:34:12 578 STADE BÉTHUNE PÉLICAN CLUB FRA
36 RODRIGUEZ Stéphane 2001 0:34:19 574 US MONTREUIL-SUR-MER FRA
37 PEYTAVI Clement 2002 0:34:26 570 SN LENS FRA
38 LEFEBVRE Tristan 2002 0:34:30 568 STADE BÉTHUNE PÉLICAN CLUB FRA
39 PETITPREZ Paul 2001 0:34:52 557 ASL CANETONS LILLERS FRA
40 DEGRAEVE-LECERF Nicolas 2002 0:34:54 557 RACING CLUB ARRAS FRA
41 DOMINIK Amaury 2002 0:34:60 554 USO BRUAY-LA-BUISSIERE FRA
42 DELETTRE Antoine 2000 0:34:64 552 ASL CANETONS LILLERS FRA
43 PICHARD Matisse 2003 0:34:66 551 CALAIS NATATION FRA
44 MATON Stephane 2000 0:34:75 546 RACING CLUB ARRAS FRA
45 LESERT Vincent 2003 0:34:79 544 SN LENS FRA
46 LELEU Baptiste 2001 0:35:16 526 CALAIS NATATION FRA
47 RINGOT Louis 2001 0:35:22 523 TRITONS LUMBRES FRA
48 RENSY Lucien 2000 0:35:35 517 DAUPHINS ST-OMER FRA
49 HUNET Marvin 2001 0:35:37 516 SN LENS FRA
50 PERQUE Raphaël 2000 0:35:53 509 BERCK NATATION FRA
51 BOULY Arthur 2003 0:35:61 505 CALAIS NATATION FRA
52 MARLARD Tom 2002 0:35:62 504 SC BOULOGNE-SUR-MER FRA
53 BUTEAUX Elie 2002 0:35:62 504 STADE BÉTHUNE PÉLICAN CLUB FRA
54 SAUDEMONT Felix 2001 0:35:78 497 ENC ACHICOURT FRA
55 BUFFAUT Adam 2000 0:35:81 495 SN LENS FRA
56 COCQUERELLE Antoine 2000 0:35:87 493 CN COURRIÈRES FRA
57 LOUVET Loïc 2001 0:35:95 489 CALAIS NATATION FRA
58 SEGRET Marceau 2002 0:35:99 487 BERCK NATATION FRA
59 DEY Grégoire 2002 0:36:35 470 CN COURRIÈRES FRA
60 MAVEAU Lucas 2003 0:36:39 469 DAUPHINS ST-OMER FRA
61 LEMAS Baptiste 2002 0:36:42 467 TRITONS LUMBRES FRA
62 BONNISSANT Maxime 2002 0:36:47 465 STADE BÉTHUNE PÉLICAN CLUB FRA
63 CADET Thomas 2002 0:36:47 465 TRITONS LUMBRES FRA
64 BEAUVOIS Nicola 2001 0:36:49 464 STADE BÉTHUNE PÉLICAN CLUB FRA
65 FONTAINE Gauthier 2001 0:36:59 460 SN LENS FRA
66 BERRABAH Yanis 2003 0:36:75 452 CN HÉNIN-BEAUMONT FRA
67 THULLIER Gaëtan 2001 0:36:77 452 STADE BÉTHUNE PÉLICAN CLUB FRA
68 FTULISIAK Yanis 2001 0:36:91 445 STADE BÉTHUNE PÉLICAN CLUB FRA
69 GEUJON Paul 2003 0:37:16 434 ASL CANETONS LILLERS FRA
70 VILLAYES Julien 2000 0:37:26 430 SN LENS FRA
71 LEQUEUX Antonin 2001 0:37:27 429 US MONTREUIL-SUR-MER FRA
72 BOUREL Pierre 2000 0:37:33 427 STADE BÉTHUNE PÉLICAN CLUB FRA
73 DEWAELE Oscar 2003 0:37:65 413 ASL CANETONS LILLERS FRA
74 FAVIER Alexandre 2000 0:37:68 412 TRITONS LUMBRES FRA
75 RODRIGUES Simon 2000 0:37:70 411 ASL CANETONS LILLERS FRA
76 OTOGBE Damien 2003 0:37:78 408 STADE BÉTHUNE PÉLICAN CLUB FRA
77 LORGNIER Cyprien 2003 0:37:78 408 TRITONS LUMBRES FRA
78 GUILBERT Enzo 2002 0:37:79 407 AUCHEL NATATION FRA
79 BORZUCHOWSKI Yannis 2002 0:38:01 398 CN COURRIÈRES FRA
80 CREPIN Baptiste 2003 0:38:06 396 STADE BÉTHUNE PÉLICAN CLUB FRA
81 MORMENTYN Paul 2002 0:38:35 384 CALAIS NATATION FRA
82 GRANADO Hugo 2002 0:38:46 379 CN COURRIÈRES FRA
83 DEVOS Nils 2002 0:38:56 375 CALAIS NATATION FRA
84 VAQUETTE Nicolas 2002 0:38:77 367 ENC ACHICOURT FRA
85 CATEAU Thomas 2002 0:38:94 360 STADE BÉTHUNE PÉLICAN CLUB FRA
86 DUFOUR Alexis 2002 0:39:12 353 ASL CANETONS LILLERS FRA
87 CONSTANT Jules 2001 0:39:16 351 DAUPHINS ST-OMER FRA
88 LEROY Remi 2001 0:39:71 330 CN DIVION FRA
89 GIVERN Enzo 2004 0:40:38 305 BERCK NATATION FRA
90 BASSET Maxime 2003 0:40:42 303 STADE BÉTHUNE PÉLICAN CLUB FRA
91 LEMAIRE Axel 2003 0:40:69 294 ASL CANETONS LILLERS FRA
92 BARATTE Thomas 2004 0:40:76 291 RACING CLUB ARRAS FRA
93 BOUDIER Louka 2002 0:40:97 284 DAUPHINS ST-OMER FRA
94 LEPILLET Grégoire 2002 0:41:24 274 STADE BÉTHUNE PÉLICAN CLUB FRA
95 DUBRULLE Benoit 2002 0:41:31 272 ASL CANETONS LILLERS FRA
96 HENRY Louis 2002 0:41:31 272 RACING CLUB ARRAS FRA
97 MAILLY Hugo 2002 0:41:41 268 BERCK NATATION FRA
98 CAMPAGNE Nathan 2003 0:41:49 265 STADE BÉTHUNE PÉLICAN CLUB FRA
99 LAROCHE Nathan 2003 0:41:66 260 STADE BÉTHUNE PÉLICAN CLUB FRA
100 ROCHE-MATHON Timothee 2003 0:42:02 248 RACING CLUB ARRAS FRA
101 DUBART Anthony 2002 0:42:10 245 SN LENS FRA
102 TUILLIEZ Giovanny 2002 0:42:26 240 DAUPHINS ST-OMER FRA
103 BOUT Valentin 2001 0:42:26 240 DAUPHINS ST-OMER FRA
104 LENEL Thomas 2003 0:42:89 220 SC BOULOGNE-SUR-MER FRA
105 NORMAND Jeremy 2003 0:43:00 216 DAUPHINS ST-OMER FRA
106 DUPREYS Gauthier 2004 0:43:06 214 DAUPHINS ST-OMER FRA
107 PANEL Thibault 2002 0:43:22 210 ASL CANETONS LILLERS FRA
108 DE SAINTE MARESVILLE Marius 2003 0:43:33 206 US MONTREUIL-SUR-MER FRA
109 BELLIVIER Tom 2002 0:43:45 203 DAUPHINS ST-OMER FRA
110 BLERVAQUE Felicien 2003 0:43:54 200 STADE BÉTHUNE PÉLICAN CLUB FRA
111 CAMBOUR Martin 2003 0:43:65 197 RACING CLUB ARRAS FRA
112 BORZUCHOWSKI Ilhan 2004 0:43:76 194 CN COURRIÈRES FRA
113 FROISSART Alexandre 2004 0:43:77 193 US MONTREUIL-SUR-MER FRA
114 NOTEBAERT Romain 2004 0:43:79 193 SN LENS FRA
115 BECQUET Melvin 2005 0:44:54 171 US MONTREUIL-SUR-MER FRA
116 FRANEK Remi 2004 0:44:82 164 SN LENS FRA
117 GLANGETAS Romain 2003 0:44:91 161 CALAIS NATATION FRA
118 CASTILLE Kenzo 2004 0:45:12 156 AUCHEL NATATION FRA
119 HENOCQ Flavien 2004 0:45:92 136 RACING CLUB ARRAS FRA
120 ROUANET Eliott 2004 0:47:66 96 CALAIS NATATION FRA
121 LEMAITRE Marco 2004 0:48:18 86 SN LENS FRA
122 FIRLEJ Thibaut 2003 0:48:48 80 RACING CLUB ARRAS FRA
123 COLLIER Tom 2005 0:50:46 47 CALAIS NATATION FRA
124 LEVAILLANT Simon 2003 0:51:79 30 CALAIS NATATION FRA
125 FIEVET Rodolphe 2003 0:52:41 23 USO BRUAY-LA-BUISSIERE FRA
RACING CLUB ARRAS